Temperature
17 17 17 17 17 17 17 16 16 16 16 16 16 16 15 15 15 15 15 15 15 15 14 14 14 14 14 14 14 14 14 14 14 14 14 14 14 14 14 13 13 13 13
17 17 17 17 17 17 17 16 16 16 16 16 15 15 15 15 15 15 15 15 14 14 14 14 14 14 14 14 14 14 14 14 14 14 14 13 13 13 13 13 13 13 13
17 17 17 17 17 16 16 16 16 16 16 15 15 15 15 15 15 15 15 14 14 14 14 14 14 14 14 14 14 14 14 14 14 13 14 13 13 13 13 13 13 13 13
16 16 17 17 17 16 16 16 16 16 16 15 15 15 15 15 15 15 14 14 14 14 14 14 14 14 14 14 14 14 14 14 14 13 13 13 13 13 13 13 13 13 13
16 16 16 17 16 16 16 16 16 16 16 15 15 15 15 15 14 14 14 14 14 14 14 14 14 14 14 14 14 14 14 14 13 13 13 13 13 13 13 13 13 13 13
16 16 16 16 16 16 16 16 16 15 15 15 15 15 15 15 14 14 14 14 14 14 14 14 14 14 14 14 14 14 13 13 13 13 13 13 13 13 13 13 13 13 12
16 16 16 16 16 16 16 16 15 15 15 15 15 15 15 14 14 14 14 14 14 14 14 14 14 14 14 14 13 13 13 13 13 13 13 13 13 13 13 13 13 12 12
15 15 16 16 16 16 15 15 15 15 15 15 15 15 14 14 14 14 14 14 14 14 14 14 14 13 13 13 13 13 13 13 13 13 13 13 13 13 13 13 13 12 12
15 15 15 15 15 15 15 15 15 15 15 15 15 14 14 14 14 14 14 14 14 14 14 13 13 13 13 13 13 13 13 13 13 13 13 13 13 13 13 13 12 12 12
15 15 15 15 15 15 15 15 15 15 15 15 15 14 14 14 14 14 14 14 14 14 13 13 13 13 13 13 13 13 13 13 13 13 13 13 13 12 12 12 12 12 12
15 15 15 15 15 15 15 15 15 15 15 15 14 14 14 14 14 14 14 14 14 13 13 13 13 13 13 13 13 13 13 13 13 12 12 12 12 12 12 12 12 12 12
15 15 15 15 15 15 15 15 15 15 14 14 14 14 14 14 14 14 14 14 13 13 13 13 13 13 13 13 13 13 12 12 12 12 12 12 12 12 12 12 12 12 11
15 15 15 15 15 15 15 15 14 14 14 14 14 14 14 14 13 13 13 13 13 13 13 13 13 13 12 12 12 12 12 12 12 12 12 12 12 12 12 11 11 11 11
15 15 15 15 15 15 14 14 14 14 14 14 14 14 13 13 13 13 13 13 13 13 13 13 12 12 12 12 12 12 12 12 11 11 11 11 11 11 11 11 11 11 11
14 14 14 14 14 14 14 14 14 14 14 13 13 13 13 13 13 12 12 12 12 12 12 12 12 12 12 12 11 11 11 11 11 11 11 11 11 11 11 11 11 11 11
14 14 14 14 14 14 14 14 13 13 13 13 13 13 13 12 12 12 12 12 12 12 12 12 11 11 11 11 11 11 11 11 11 11 11 11 11 11 11 11 11 11 10
14 14 14 14 14 13 13 13 13 13 13 13 13 12 12 12 12 12 12 11 11 11 11 11 11 11 11 11 11 11 11 11 11 11 11 10 10 10 10 10 10 10 10
13 13 13 13 13 13 13 13 13 13 12 12 12 12 12 12 11 11 11 11 11 11 11 11 11 10 10 10 10 10 10 10 10 10 10 10 10 10 10 10 10 10 10
13 13 13 13 13 13 13 13 12 12 12 12 12 11 11 11 11 11 11 11 11 11 10 10 10 10 10 10 10 10 10 10 10 10 10 10 10 10 10 10 10 10 10
13 13 13 13 13 12 12 12 12 12 12 11 11 11 11 11 11 10 10 10 10 10 10 10 10 10 9 9 9 9 9 9 9 9 9 9 9 10 10 10 10 10 10
12 12 12 12 12 12 12 12 11 11 11 11 11 11 10 10 10 10 10 10 9 9 9 9 9 9 9 9 9 9 9 9 9 9 9 9 9 9 9 9 9 9 9
12 12 12 12 12 11 11 11 11 11 11 11 10 10 10 10 10 10 9 9 9 9 9 9 8 8 8 8 8 8 8 8 8 8 8 8 8 8 8 8 8 9 8
12 11 11 11 11 11 11 10 10 10 10 10 10 10 9 9 9 9 9 9 8 8 8 8 8 8 8 8 8 8 8 8 8 8 8 8 8 8 8 8 8 8 8
11 11 11 11 10 10 10 10 10 10 9 9 9 9 9 9 9 8 8 8 8 8 8 7 7 7 7 7 7 7 7 7 7 7 7 7 7 7 7 7 7 7 8
11 11 10 10 10 10 10 9 9 9 9 9 9 9 8 8 8 8 8 8 7 7 7 7 7 7 7 7 7 7 7 7 7 7 7 7 7 7 7 7 7 7 7
10 10 10 10 10 9 9 9 9 9 9 9 8 8 8 8 7 7 7 7 7 7 7 7 6 6 6 6 6 6 6 6 6 6 6 6 6 6 6 6 7 7 7
Wind_Speed
3 1 1 1 2 2 2 2 2 2 2 1 1 1 1 0 1 1 3 4 5 5 5 4 3 3 3 3 3 3 4 2 2 3 3 3 3 4 3 3 3 4 5
1 0 1 2 2 2 2 2 2 2 2 2 1 2 2 1 0 1 2 3 3 4 4 4 3 3 3 3 3 3 2 1 1 2 2 2 4 3 3 3 2 3 4
3 2 1 1 1 2 2 2 1 1 1 2 2 2 3 2 1 1 1 1 2 3 4 5 4 3 3 3 2 3 3 2 1 1 3 2 2 2 3 2 2 2 2
2 2 1 1 2 2 2 2 2 1 1 2 3 3 3 2 2 1 1 1 2 2 3 4 4 4 3 3 3 2 2 3 2 1 1 1 3 2 1 2 2 2 2
2 2 2 3 3 2 2 2 2 1 1 2 3 4 3 2 1 1 2 1 1 1 2 3 3 3 3 3 2 2 2 2 3 2 1 2 2 1 2 1 2 2 2
1 1 0 0 1 1 1 2 2 1 1 2 2 4 4 4 3 2 2 1 0 0 1 2 2 3 2 2 2 2 3 2 2 2 2 2 2 2 3 2 1 1 2
2 1 1 1 0 1 1 2 3 1 1 2 2 3 4 4 4 3 3 3 2 1 2 2 2 2 2 3 2 2 2 2 2 2 2 2 2 3 3 3 2 1 2
2 2 1 1 1 1 1 2 2 2 1 2 2 2 2 3 3 3 3 3 3 3 3 3 2 2 2 2 2 2 2 2 2 3 2 2 2 3 3 4 3 1 1
2 2 1 1 1 1 1 2 3 2 2 2 2 2 2 3 3 3 2 2 2 2 3 3 3 2 2 2 2 2 2 2 2 2 2 2 2 2 2 3 4 4 2
3 2 2 1 1 1 1 1 1 2 2 2 2 1 1 2 3 2 3 3 3 2 2 3 3 3 2 2 3 2 2 2 1 1 2 1 1 1 2 3 3 3 4
4 3 3 2 1 0 0 0 0 0 0 1 1 0 0 0 1 2 3 3 2 3 3 3 3 3 2 2 3 3 3 3 2 1 2 2 2 2 2 2 3 3 3
3 3 3 2 2 1 1 0 0 1 1 1 1 1 0 0 0 1 2 2 3 3 3 3 3 3 3 3 4 4 3 3 3 2 2 2 2 2 2 3 3 3 3
1 2 2 2 2 2 1 1 1 1 1 1 1 1 0 0 1 1 1 1 1 2 2 3 3 3 3 3 4 4 3 3 4 3 4 3 3 2 2 3 3 3 2
2 3 3 3 3 2 2 2 2 2 1 1 1 1 1 1 1 0 1 0 1 1 1 2 2 2 2 2 2 3 3 3 3 3 4 4 5 5 4 3 4 3 3
1 2 3 4 3 2 2 2 3 2 2 2 1 2 1 0 1 1 1 1 1 1 1 1 1 1 1 2 2 2 2 3 3 3 3 4 5 5 5 4 4 4 3
2 2 2 3 4 4 4 3 3 3 2 2 3 2 1 1 1 0 1 2 2 2 2 1 1 1 2 2 3 3 2 2 2 3 3 3 4 4 5 5 5 6 5
3 2 2 3 4 4 4 4 4 3 2 3 3 2 2 2 1 1 1 1 1 1 1 1 0 1 1 1 1 3 3 2 2 2 3 3 3 3 3 4 4 4 5
3 3 3 3 2 2 3 2 2 2 3 3 2 2 2 2 1 1 1 1 0 0 0 0 0 1 2 1 1 2 3 2 2 3 3 3 3 3 4 3 2 3 4
3 3 3 3 2 1 2 2 1 1 2 2 3 3 4 3 2 2 2 2 1 1 0 0 0 1 2 2 2 1 2 2 2 2 2 3 3 4 4 4 4 3 3
1 1 1 0 0 1 1 3 2 2 3 4 3 3 3 4 4 4 3 2 1 1 1 0 1 1 2 3 2 2 2 2 2 2 2 3 4 4 4 5 5 5 5
1 0 0 0 1 0 1 2 2 3 4 3 2 1 2 3 3 3 2 2 2 1 1 0 1 2 2 3 3 1 2 3 2 2 2 3 4 4 5 5 5 7 5
1 0 1 0 1 0 1 1 3 4 2 2 2 1 1 1 1 2 1 2 2 2 1 0 1 2 2 2 3 2 2 2 2 3 3 3 4 4 5 5 5 6 4
1 0 1 0 1 0 1 1 3 2 1 2 2 2 2 1 2 2 2 2 2 2 1 1 1 2 2 3 4 3 2 2 2 3 3 3 4 3 3 5 6 5 3
1 1 1 1 1 2 1 2 2 0 1 1 1 2 2 2 1 2 2 2 2 2 2 2 2 2 2 2 2 2 2 2 2 2 3 3 2 2 2 3 3 3 3
1 1 2 2 3 2 2 2 1 1 1 1 2 2 2 2 2 2 2 3 3 4 4 4 3 2 3 4 3 2 2 2 2 1 0 0 1 1 2 2 1 1 2
1 1 2 2 2 2 3 2 1 1 2 1 1 1 2 2 2 2 1 2 3 4 4 4 4 4 4 4 3 3 3 3 2 1 1 1 2 2 2 2 2 2 2
Wind_Direction
251 246 146 124 117 131 147 157 163 168 148 133 132 123 128 33 45 89 119 136 145 144 134 126 121 120 119 124 121 107 87 66 69 69 34 15 25 35 27 21 30 28 31
280 271 125 109 138 154 153 154 164 165 170 172 155 130 123 107 117 76 90 115 139 146 146 135 134 130 121 117 123 118 107 80 71 105 87 23 357 5 18 16 27 24 32
212 213 181 160 154 176 182 174 164 156 161 141 114 91 75 58 45 48 55 73 129 140 142 144 139 136 139 148 156 150 138 143 74 99 135 139 215 313 342 4 18 16 25
206 196 191 190 196 212 188 160 161 150 151 145 147 148 157 170 201 180 152 97 112 128 142 144 143 145 146 154 176 168 153 143 151 87 78 142 157 153 321 339 348 360 19
194 195 208 211 205 199 176 168 154 154 150 150 162 161 161 175 161 119 108 100 70 113 141 149 146 149 154 161 160 151 155 157 162 163 146 108 81 120 152 252 323 343 340
168 161 136 125 169 158 144 141 141 155 158 149 155 164 166 162 152 146 150 157 132 1 142 159 159 161 165 167 166 160 157 162 161 165 167 166 166 182 162 182 236 302 319
169 154 115 83 97 146 150 139 141 156 169 153 167 185 178 167 171 175 181 181 193 224 225 185 169 174 184 174 164 155 164 173 175 180 191 189 193 169 155 152 173 241 314
191 196 192 191 212 180 175 162 161 173 168 162 186 184 178 177 185 187 191 192 204 216 204 175 176 183 171 163 161 159 181 175 191 196 187 183 197 167 162 160 151 135 332
209 219 200 193 216 222 212 190 179 180 189 195 196 191 185 187 192 198 200 206 218 213 181 169 174 184 176 167 152 169 189 177 200 209 193 184 189 177 171 157 155 154 173
196 217 208 198 216 220 221 134 156 194 215 207 208 194 196 200 198 194 210 217 222 209 179 176 175 180 180 179 166 181 192 171 200 189 160 175 184 173 169 168 161 153 160
204 201 199 192 203 223 147 140 173 165 235 225 222 218 245 210 200 211 231 226 224 209 200 182 179 186 193 191 180 193 174 170 179 175 169 196 167 154 161 154 151 154 148
206 197 186 177 175 200 210 214 222 224 236 211 161 204 244 65 230 236 240 226 217 207 201 186 183 193 200 194 188 191 180 176 186 197 179 204 169 161 162 158 165 172 169
190 186 178 193 206 212 208 212 225 239 244 175 140 112 19 5 267 272 254 214 214 209 198 185 193 202 201 193 194 190 187 189 201 198 193 202 171 180 180 172 178 183 173
197 197 204 216 218 215 213 217 236 240 225 165 150 170 240 239 265 325 33 69 137 151 155 169 189 194 189 180 189 192 192 194 205 206 203 200 190 195 190 189 190 176 163
228 222 224 226 225 222 227 227 230 231 205 180 185 218 227 152 69 42 42 42 61 86 104 128 159 170 174 189 179 183 194 199 207 215 218 213 203 202 195 196 189 174 171
264 273 259 240 230 224 224 228 229 221 194 198 217 215 177 123 111 123 74 52 47 54 65 60 153 175 211 202 181 167 179 190 202 222 228 224 216 213 210 207 190 180 180
253 267 266 250 246 235 224 221 224 209 192 213 228 202 173 174 198 160 97 78 45 59 61 28 80 197 257 242 182 187 176 193 214 224 227 229 219 210 209 221 214 203 200
252 262 266 260 258 240 220 223 212 193 201 212 219 205 181 196 195 153 164 187 131 111 156 299 216 232 273 271 258 219 187 201 223 227 219 222 234 218 199 194 204 221 221
237 240 242 241 237 239 198 157 167 189 199 221 221 213 197 194 188 194 207 199 160 167 230 261 254 242 279 281 260 223 192 212 239 248 239 227 232 232 200 183 199 224 244
259 252 258 340 290 279 174 152 184 194 221 231 229 219 200 192 195 205 207 195 173 199 222 289 288 276 286 296 276 211 182 213 245 269 269 249 243 246 222 198 198 217 233
274 266 138 85 276 262 122 154 199 229 239 230 206 199 205 207 199 194 183 172 169 160 161 289 313 308 302 312 306 255 198 214 225 242 257 263 268 262 250 228 214 226 223
314 234 139 310 315 108 120 188 241 242 225 187 175 193 208 212 181 158 154 149 155 159 177 183 316 315 312 313 308 305 264 248 216 236 247 257 271 270 262 244 235 231 220
246 217 158 230 328 306 169 232 269 264 190 171 181 196 194 194 171 164 167 156 161 170 197 211 264 292 306 307 311 311 301 285 255 254 260 266 269 264 264 247 239 226 214
270 195 132 153 286 291 269 252 279 166 149 168 199 200 192 204 192 174 169 171 183 190 205 223 250 274 291 297 304 303 304 297 276 278 285 287 290 277 271 275 256 231 216
286 203 193 218 247 264 269 273 271 152 155 185 201 209 208 206 203 200 199 196 206 199 195 211 219 228 257 265 268 265 270 262 258 270 314 351 343 315 305 300 293 275 245
260 260 230 231 250 263 271 280 271 203 187 210 229 220 212 207 199 207 272 261 233 240 228 226 219 231 249 264 260 275 282 279 275 145 209 244 245 248 257 263 277 267 254
Height
1519 1520 1521 1523 1523 1524 1525 1526 1527 1527 1528 1528 1528 1529 1530 1530 1531 1532 1532 1533 1534 1535 1535 1536 1536 1537 1538 1538 1538 1539 1539 1539 1540 1540 1540 1540 1541 1541 1541 1541 1540 1540 1540
1518 1519 1520 1521 1522 1523 1524 1525 1526 1526 1527 1527 1528 1528 1529 1529 1530 1531 1532 1532 1533 1534 1535 1535 1536 1537 1537 1538 1538 1538 1539 1539 1539 1540 1540 1540 1542 1541 1541 1541 1540 1540 1540
1517 1518 1519 1520 1521 1522 1523 1523 1524 1525 1526 1526 1527 1527 1528 1528 1529 1530 1531 1531 1532 1533 1534 1535 1535 1536 1536 1537 1537 1538 1538 1538 1539 1539 1540 1540 1540 1540 1541 1540 1540 1540 1540
1516 1517 1518 1519 1520 1520 1521 1522 1523 1524 1524 1525 1526 1526 1527 1527 1528 1529 1530 1531 1532 1533 1533 1534 1535 1535 1536 1536 1537 1537 1538 1538 1538 1539 1539 1540 1539 1540 1539 1540 1540 1540 1539
1515 1515 1516 1517 1518 1519 1520 1521 1522 1523 1523 1524 1524 1524 1525 1526 1527 1528 1529 1530 1531 1532 1532 1533 1534 1534 1535 1535 1536 1536 1536 1537 1537 1537 1538 1538 1538 1538 1539 1538 1539 1539 1539
1514 1514 1515 1516 1517 1518 1519 1520 1521 1521 1522 1522 1523 1523 1524 1525 1525 1526 1527 1528 1529 1530 1531 1532 1532 1533 1533 1534 1534 1535 1535 1535 1536 1536 1536 1536 1537 1537 1537 1537 1537 1537 1538
1513 1513 1514 1515 1516 1517 1518 1519 1519 1520 1520 1521 1521 1522 1522 1523 1524 1524 1526 1527 1527 1528 1529 1530 1530 1531 1532 1532 1533 1533 1533 1534 1534 1534 1535 1535 1535 1536 1536 1536 1536 1536 1537
1512 1513 1514 1515 1515 1516 1517 1518 1518 1519 1520 1520 1520 1521 1521 1522 1522 1523 1524 1525 1525 1526 1527 1528 1528 1529 1530 1530 1531 1531 1532 1532 1532 1533 1533 1533 1534 1534 1534 1535 1535 1535 1535
1512 1513 1513 1514 1515 1516 1516 1517 1517 1518 1519 1519 1519 1519 1520 1520 1521 1521 1522 1523 1524 1524 1525 1525 1526 1527 1527 1528 1528 1529 1530 1530 1531 1531 1531 1532 1532 1532 1533 1533 1534 1535 1534
1511 1512 1513 1514 1515 1515 1516 1516 1517 1517 1518 1518 1518 1518 1519 1519 1519 1520 1520 1521 1521 1522 1522 1523 1523 1524 1525 1525 1526 1527 1527 1528 1528 1529 1529 1530 1530 1531 1531 1531 1532 1533 1533
1510 1511 1512 1513 1514 1515 1515 1515 1516 1516 1517 1517 1518 1518 1518 1518 1518 1518 1518 1519 1519 1519 1520 1521 1521 1521 1522 1523 1523 1524 1525 1525 1526 1526 1527 1527 1528 1528 1529 1529 1530 1530 1531
1509 1510 1511 1512 1513 1514 1514 1514 1515 1515 1516 1516 1516 1516 1516 1516 1516 1516 1516 1516 1517 1517 1517 1518 1518 1519 1520 1520 1520 1521 1521 1522 1523 1524 1524 1525 1525 1526 1527 1527 1528 1528 1529
1508 1509 1510 1511 1511 1512 1513 1514 1514 1514 1514 1515 1514 1514 1514 1514 1514 1514 1514 1514 1514 1514 1515 1515 1516 1516 1516 1517 1517 1518 1518 1519 1520 1521 1522 1522 1523 1523 1524 1524 1525 1526 1527
1507 1507 1508 1509 1510 1511 1511 1512 1512 1513 1513 1513 1513 1512 1512 1512 1511 1511 1511 1511 1511 1512 1512 1513 1513 1514 1514 1514 1514 1515 1515 1516 1517 1518 1519 1520 1520 1520 1521 1522 1522 1523 1524
1506 1506 1506 1507 1508 1509 1509 1510 1510 1510 1510 1510 1510 1510 1510 1509 1509 1509 1509 1509 1509 1509 1510 1510 1510 1511 1511 1511 1512 1512 1512 1513 1514 1515 1515 1516 1517 1518 1518 1519 1519 1520 1520
1504 1504 1505 1505 1506 1506 1507 1507 1507 1508 1508 1507 1507 1507 1507 1507 1507 1507 1507 1507 1507 1507 1507 1507 1507 1508 1508 1509 1509 1509 1509 1510 1510 1511 1512 1513 1513 1514 1515 1515 1516 1517 1517
1502 1502 1502 1503 1503 1504 1504 1504 1505 1505 1505 1505 1505 1505 1505 1505 1505 1505 1504 1504 1504 1504 1504 1504 1504 1505 1505 1506 1506 1506 1506 1507 1507 1508 1508 1509 1509 1510 1511 1511 1512 1513 1513
1500 1500 1500 1500 1501 1502 1502 1502 1502 1502 1502 1502 1502 1502 1502 1502 1502 1502 1502 1502 1502 1502 1502 1501 1501 1502 1502 1502 1502 1503 1503 1503 1504 1504 1504 1505 1505 1506 1507 1507 1508 1508 1509
1498 1498 1498 1498 1498 1499 1499 1499 1499 1499 1499 1499 1499 1499 1499 1499 1499 1499 1499 1499 1499 1499 1499 1499 1498 1498 1499 1499 1499 1499 1499 1499 1499 1500 1500 1501 1501 1502 1502 1503 1503 1504 1505
1496 1496 1496 1496 1496 1496 1496 1496 1495 1496 1496 1496 1496 1496 1496 1495 1495 1495 1495 1495 1495 1495 1495 1495 1495 1495 1495 1495 1496 1496 1495 1495 1495 1495 1496 1496 1497 1497 1498 1498 1499 1499 1500
1494 1494 1494 1494 1494 1494 1493 1492 1492 1492 1492 1493 1493 1493 1493 1493 1492 1492 1492 1492 1492 1492 1492 1492 1492 1492 1492 1492 1492 1492 1491 1491 1491 1491 1491 1492 1492 1492 1493 1494 1494 1494 1496
1492 1491 1491 1491 1491 1491 1491 1490 1489 1489 1489 1489 1489 1489 1489 1489 1489 1489 1489 1489 1489 1489 1488 1488 1488 1488 1488 1488 1488 1488 1488 1487 1487 1487 1487 1487 1488 1488 1489 1489 1489 1490 1491
1489 1489 1489 1489 1489 1489 1488 1487 1487 1486 1486 1486 1486 1486 1486 1486 1486 1486 1486 1486 1485 1485 1485 1485 1485 1484 1484 1485 1485 1484 1484 1483 1483 1483 1483 1483 1483 1484 1484 1484 1485 1485 1485
1487 1486 1486 1486 1486 1486 1485 1485 1484 1484 1483 1483 1483 1483 1483 1483 1483 1483 1483 1483 1483 1482 1482 1482 1481 1481 1481 1481 1480 1480 1480 1480 1479 1479 1479 1479 1479 1479 1479 1479 1480 1480 1480
1484 1484 1484 1483 1483 1483 1482 1482 1481 1481 1480 1480 1480 1479 1480 1480 1480 1480 1480 1480 1480 1480 1479 1479 1479 1478 1477 1477 1477 1477 1476 1475 1475 1475 1474 1474 1474 1474 1474 1474 1474 1474 1474
1482 1481 1481 1480 1480 1480 1479 1479 1478 1478 1477 1476 1476 1476 1476 1476 1476 1476 1476 1476 1477 1477 1476 1476 1476 1475 1475 1474 1473 1473 1473 1472 1472 1471 1470 1470 1469 1469 1469 1469 1469 1469 1469